Kezdőlap
METAR-TAF:

METAR-TAF

Repülőterek :

Pipestone Municipal Airport

Pipestone, Minnesota, Amerikai Egyesült Államok

földrajzi szélesség: 43-59N, földrajzi hosszúság: 096-19W, magasság: 529 m

Jelenlegi meteorológiai megfigyelések

A jelentés 16 perccel ezelõtt készült, 12:55 UTC
Szélcsend
Hőmérséklet 0°C
Páratartalom 64%
Légköri nyomás 1026 hPa
Látótávolság: 16.1 km
Szórványos felhőzet 9000 lábon

METAR: KPQN 041255Z AUTO 00000KT 10SM SCT090 00/M06 A3031 RMK AO2

Idő: 07:11 (13:11 UTC)


TAF: hiányzik

Meteorológiai megfigyelések és előrejelzések több, mint 4000 repülőtéren (METAR és TAF jelentéseket).

A térképen piros és sárga pontok jelzik az elérhető meteorológiai állomásokat.

Mozgassa az egeret a pont fölött, hogy megjelenjen az állomás neve.

Azután kattintson az időjárási megfigyelések és előrejelzések megtekintéséhez.

A térkép megváltoztatása: kattintson a fekete keresztel jelölt zöld gombra ráközelítéshez, a vonallal jelölt zöld gombra távolításhoz, vagy a zöld nyilakra a szomszédos térképek eléréséhez.


METAR-TAF: